Station BLTM2 - 8574680 - Baltimore, MD Image indicating link to RSS feed of recent meteorological observations for station BLTM2


Conditions at BLTM2 as of
(8:00 am EDT)
1200 GMT on 04/19/2024:
     

Click on the graph icon in the table below to see a time series plot of the last five days of that observation.

5-day plot - Wind Direction Wind Direction (WDIR): E ( 100 deg true )
5-day plot - Wind Speed Wind Speed (WSPD): 8.0 kts
5-day plot - Wind Gust Wind Gust (GST): 9.9 kts
5-day plot - Air Temperature Air Temperature (ATMP): 49.3 °F
5-day plot - Water Temperature Water Temperature (WTMP): 60.8 °F
5-day plot - Wind Chill Wind Chill (CHILL): 45.5 °F
5-day plot - Wind Speed at 10 Meters Wind Speed at 10 meters (WSPD10M): 7.8 kts
5-day plot - Wind Speed at 20 Meters Wind Speed at 20 meters (WSPD20M): 9.7 kts
5-day plot -  Wind Speed, Wind Gust and Atmospheric Pressure Combined plot of Wind Speed, Gust, and Air Pressure
NOS Water Level Observation Network Water Level
Previous observations
TIME
(EDT)
5-day plot - Wind Direction
WDIR
 
5-day plot - Wind Speed
WSPD
kts
5-day plot - Wind Gust
GST
kts
5-day plot - Wave Height
WVHT
ft
5-day plot - Dominant Wave Period
DPD
sec
5-day plot - Average Wave Period
APD
sec
5-day plot - Mean Wave Direction
MWD
 
5-day plot - Atmospheric Pressure
PRES
in
5-day plot - Pressure Tendency
PTDY
in
5-day plot - Air Temperature
ATMP
°F
5-day plot - Water Temperature
WTMP
°F
5-day plot - Dew Point
DEWP
°F
5-day plot - Salinity
SAL
psu
5-day plot - Visibility
VIS
nmi
5-day plot - Tide (above MLLW)
TIDE
ft
2024-04-19 07:54 am E 8.9 11.1------ 49.1 60.8----
2024-04-19 07:48 amESE 8.0 11.1------ 49.6 60.8----
2024-04-19 07:42 am E 8.0 9.9------ 49.6 60.8----
2024-04-19 07:36 am E 7.0 9.9------ 49.6 60.8----
2024-04-19 07:30 amESE 6.0 8.0------ 49.5 60.8----
2024-04-19 07:24 amESE 7.0 9.9------ 49.6 60.8----
2024-04-19 07:18 am E 6.0 8.9------ 49.6 60.8----
2024-04-19 07:12 am E 6.0 8.9------ 49.5 60.8----
2024-04-19 07:06 am E 6.0 8.0------ 49.6 60.8----
2024-04-19 07:00 am E 6.0 8.0------ 49.6 60.8----
2024-04-19 06:54 am E 5.1 8.0------ 49.8 60.8----
2024-04-19 06:48 am E 5.1 8.0------ 49.5 60.8----
2024-04-19 06:42 amENE 7.0 8.0------ 49.6 60.8----
2024-04-19 06:36 amENE 6.0 8.9------ 49.6 60.8----
2024-04-19 06:30 am E 7.0 8.9------ 49.3 60.8----
2024-04-19 06:24 am E 7.0 8.9------ 49.5 60.8----
2024-04-19 06:18 am E 7.0 8.9------ 49.3 60.8----
2024-04-19 06:12 am E 7.0 8.0------ 49.3 60.8----
2024-04-19 06:06 am E 5.1 8.9------ 49.5 60.8----
2024-04-19 06:00 am E 7.0 8.9------ 49.5 60.8----
2024-04-19 05:54 am E 7.0 8.9------ 49.3 60.8----
2024-04-19 05:48 am E 4.1 7.0------ 49.6 60.8----
2024-04-19 05:42 amENE 5.1 7.0------ 49.6 60.8----
2024-04-19 05:36 am E 6.0 8.0------ 49.5 61.0----
2024-04-19 05:30 am E 6.0 7.0------ 49.5 61.0----
2024-04-19 05:24 am E 6.0 7.0------ 49.3 61.0----
2024-04-19 05:18 amENE 6.0 7.0------ 49.3 61.0----
2024-04-19 05:12 am E 4.1 7.0------ 49.3 61.0----
2024-04-19 05:06 am E 5.1 8.9------ 49.3 61.0----
2024-04-19 05:00 am NE 5.1 8.0------ 49.6 61.0----
2024-04-19 04:54 amENE 6.0 8.0------ 49.3 61.0----
2024-04-19 04:48 am E 5.1 8.0------ 49.5 61.2----
2024-04-19 04:42 amENE 6.0 8.9------ 49.6 61.2----
2024-04-19 04:36 am E 5.1 7.0------ 49.8 61.2----
2024-04-19 04:30 am E 6.0 8.9------ 49.6 61.2----
2024-04-19 04:24 am NE 6.0 8.9------ 49.5 61.2----
2024-04-19 04:18 amENE 6.0 8.9------ 49.6 61.2----
2024-04-19 04:12 amENE 5.1 7.0------ 49.5 61.2----
2024-04-19 04:06 am E 5.1 7.0------ 49.8 61.2----
2024-04-19 04:00 amENE 6.0 7.0------ 49.6 61.2----
2024-04-19 03:54 am E 6.0 8.0------ 49.6 61.2----
2024-04-19 03:48 am E 6.0 8.9------ 50.2 61.2----
2024-04-19 03:42 amESE 5.1 8.0------ 50.0 61.2----
2024-04-19 03:36 am SE 5.1 11.1------ 50.2 61.2----
2024-04-19 03:30 am E 7.0 11.1------ 50.4 61.2----
2024-04-19 03:24 am E 6.0 8.0------ 50.7 61.2----
2024-04-19 03:18 amENE 6.0 8.9------ 50.2 61.2----
2024-04-19 03:12 am E 6.0 8.0------ 50.4 61.2----
2024-04-19 03:06 am E 6.0 8.9------ 50.5 61.2----
2024-04-19 03:00 amESE 5.1 8.0------ 50.9 61.2----
2024-04-19 02:54 amENE 7.0 9.9------ 50.9 61.2----
2024-04-19 02:48 am E 6.0 9.9------ 50.9 61.3----
2024-04-19 02:42 am E 8.0 8.9------ 50.9 61.3----
2024-04-19 02:36 am E 5.1 8.0------ 51.1 61.3----
2024-04-19 02:30 amESE 5.1 6.0------ 51.4 61.2----
2024-04-19 02:24 amESE 6.0 9.9------ 51.3 61.2----
2024-04-19 02:18 am E 6.0 9.9------ 51.4 61.2----
2024-04-19 02:12 am E 7.0 8.9------ 51.6 61.2----
2024-04-19 02:06 am E 6.0 8.0------ 51.4 61.2----
2024-04-19 02:00 am E 6.0 9.9------ 51.6 61.2----
2024-04-19 01:54 am E 7.0 9.9------ 51.6 61.2----
2024-04-19 01:48 am E 8.0 8.9------ 51.8 61.2----
2024-04-19 01:42 am E 7.0 8.9------ 51.8 61.3----
2024-04-19 01:36 am E 7.0 9.9------ 51.8 61.3----
2024-04-19 01:30 amESE 6.0 11.1------ 52.0 61.3----
2024-04-19 01:24 am E 8.9 9.9------ 52.0 61.3----
2024-04-19 01:18 am E 7.0 9.9------ 52.3 61.3----
2024-04-19 01:12 am E 7.0 8.9------ 52.5 61.3----
2024-04-19 01:06 am E 7.0 8.9------ 52.5 61.3----
2024-04-19 01:00 am E 8.0 9.9------ 52.5 61.3----
2024-04-19 12:54 am E 7.0 9.9------ 52.5 61.3----
2024-04-19 12:48 am E 7.0 9.9------ 52.9 61.3----
2024-04-19 12:42 am E 8.0 11.1------ 52.7 61.3----
2024-04-19 12:36 am E 8.0 9.9------ 52.7 61.3----
2024-04-19 12:30 am E 7.0 12.0------ 52.9 61.3----
2024-04-19 12:24 am E 8.0 11.1------ 52.7 61.3----
2024-04-19 12:18 am E 8.9 11.1------ 53.1 61.3----
2024-04-19 12:12 am E 8.0 11.1------ 53.2 61.3----
2024-04-19 12:06 am E 8.9 11.1------ 53.4 61.3----
2024-04-19 12:00 am E 8.9 12.0------ 53.2 61.5----
2024-04-18 11:54 pm E 8.9 12.0------ 53.2 61.5----
2024-04-18 11:48 pm E 8.0 12.0------ 53.6 61.5----
2024-04-18 11:42 pm E 8.0 11.1------ 54.0 61.5----
2024-04-18 11:36 pm E 8.9 11.1------ 53.6 61.5----
2024-04-18 11:30 pm E 8.0 11.1------ 53.8 61.5----
2024-04-18 11:24 pmESE 8.0 9.9------ 54.1 61.5----
2024-04-18 11:18 pm E 7.0 9.9------ 54.0 61.5----
2024-04-18 11:12 pm E 9.9 12.0------ 53.8 61.5----
2024-04-18 11:06 pm E 8.9 12.0------ 54.0 61.5----
2024-04-18 11:00 pm E 9.9 12.0------ 54.0 61.7----
2024-04-18 10:54 pm E 8.9 12.0------ 54.1 61.7----
2024-04-18 10:48 pm E 8.0 11.1------ 54.3 61.7----
2024-04-18 10:42 pm E 8.9 12.0------ 54.3 61.7----
2024-04-18 10:36 pm E 8.9 14.0------ 54.3 61.7----
2024-04-18 10:30 pm E 9.9 12.0------ 54.5 61.9----
2024-04-18 10:24 pm E 8.9 13.0------ 54.5 61.9----
2024-04-18 10:18 pm E 8.9 12.0------ 54.9 61.9----
2024-04-18 10:12 pm E 11.1 13.0------ 54.9 61.9----
2024-04-18 10:06 pm E 8.9 12.0------ 55.0 61.9----
2024-04-18 10:00 pm E 8.0 12.0------ 55.0 61.9----
2024-04-18 09:54 pm E 8.0 11.1------ 55.0 62.1----
2024-04-18 09:48 pm E 9.9 13.0------ 55.0 62.1----
2024-04-18 09:42 pm E 8.9 13.0------ 55.2 62.1----
2024-04-18 09:36 pm E 9.9 14.0------ 55.4 62.1----
2024-04-18 09:30 pm E 7.0 11.1------ 55.8 62.1----
2024-04-18 09:24 pm E 11.1 14.0------ 55.8 62.1----
2024-04-18 09:18 pm E 8.9 14.0------ 56.1 62.2----
2024-04-18 09:12 pm E 12.0 15.0------ 56.1 62.2----
2024-04-18 09:06 pm E 12.0 14.0------ 56.5 62.2----
2024-04-18 09:00 pm E 8.9 14.0------ 57.0 62.2----
2024-04-18 08:54 pm E 11.1 15.9------ 57.0 62.2----
2024-04-18 08:48 pm E 9.9 13.0------ 57.6 62.2----
2024-04-18 08:42 pm E 11.1 15.0------ 57.6 62.2----
2024-04-18 08:36 pm E 11.1 13.0------ 57.9 62.2----
2024-04-18 08:30 pm E 8.9 14.0------ 58.6 62.2----
2024-04-18 08:24 pm E 8.0 13.0------ 59.0 62.2----
2024-04-18 08:18 pm E 9.9 14.0------ 59.2 62.2----
2024-04-18 08:12 pm E 9.9 12.0------ 59.4 62.4----
2024-04-18 08:06 pm E 8.9 14.0------ 59.7 62.4----
2024-04-18 08:00 pm E 9.9 13.0------ 60.1 62.4----
2024-04-18 07:54 pm E 9.9 12.0------ 60.3 62.4----
2024-04-18 07:48 pm E 9.9 11.1------ 60.4 62.4----
2024-04-18 07:42 pm E 9.9 13.0------ 60.6 62.4----
2024-04-18 07:36 pm E 8.9 14.0------ 60.6 62.6----
2024-04-18 07:30 pm E 8.0 12.0------ 61.0 62.6----
2024-04-18 07:24 pm E 9.9 13.0------ 61.2 62.6----
2024-04-18 07:00 pm E 8.9 13.0------ 61.9 62.6----
2024-04-18 06:54 pm E 9.9 12.0------ 62.1 62.6----
2024-04-18 06:48 pmESE 8.9 12.0------ 62.2 62.8----
2024-04-18 06:42 pm E 8.9 12.0------ 62.6 62.8----
2024-04-18 06:36 pm E 8.0 13.0------ 63.0 62.6----
2024-04-18 06:30 pm E 11.1 13.0------ 62.8 62.6----
2024-04-18 06:24 pm E 11.1 14.0------ 63.0 62.6----
2024-04-18 06:18 pm E 8.0 11.1------ 63.9 62.4----
2024-04-18 06:12 pm E 9.9 12.0------ 63.7 62.2----
2024-04-18 06:06 pm E 7.0 9.9------ 64.2 62.1----
2024-04-18 06:00 pm E 8.9 11.1------- 61.7----
2024-04-18 05:54 pm E 8.9 13.0------- 61.3----
2024-04-18 05:48 pm E 8.9 13.0------ 63.9 61.3----
2024-04-18 05:42 pm E 8.9 12.0------ 64.0 61.3----
2024-04-18 05:36 pmESE 9.9 12.0------ 64.0 61.3----
2024-04-18 05:30 pm E 8.9 12.0------ 64.0 61.3----
2024-04-18 05:24 pm E 9.9 12.0------ 64.2 61.3----
2024-04-18 05:18 pmESE 9.9 12.0------ 64.2 61.2----
2024-04-18 05:12 pmESE 8.9 11.1------ 64.6 61.2----
2024-04-18 05:06 pmESE 6.0 9.9------ 64.8 61.2----
2024-04-18 05:00 pm E 7.0 11.1------ 64.9 61.2----
2024-04-18 04:54 pm E 7.0 9.9------ 64.9 61.2----
2024-04-18 04:48 pm E 7.0 9.9------ 65.1 61.2----
2024-04-18 04:42 pm E 8.0 11.1------ 64.9 61.2----
2024-04-18 04:36 pm E 5.1 8.0------ 65.1 61.2----
2024-04-18 04:30 pmESE 6.0 8.9------ 64.9 61.2----
2024-04-18 04:24 pm E 8.0 9.9------ 64.6 61.2----
2024-04-18 04:18 pmESE 9.9 11.1------ 64.8 61.2----
2024-04-18 04:12 pmESE 5.1 8.9------ 65.5 61.2----
2024-04-18 04:06 pmESE 5.1 8.9------ 65.8 61.2----
2024-04-18 04:00 pmESE 6.0 8.0------ 65.3 61.0----
2024-04-18 03:54 pm E 6.0 8.9------ 65.1 61.0----
2024-04-18 03:48 pm E 4.1 8.9------ 65.1 61.0----
2024-04-18 03:42 pm E 5.1 8.0------ 64.9 61.0----
2024-04-18 03:36 pmESE 5.1 8.0------ 64.8 61.0----
2024-04-18 03:30 pmESE 5.1 8.9------ 64.8 61.0----
2024-04-18 03:24 pmESE 4.1 6.0------ 63.7 61.0----
2024-04-18 03:18 pm SE 5.1 8.0------ 63.1 61.0----
2024-04-18 03:12 pm SE 6.0 8.9------ 63.3 61.0----
2024-04-18 03:06 pm SE 6.0 8.0------ 63.3 61.0----
2024-04-18 03:00 pmESE 5.1 7.0------ 63.9 61.0----
2024-04-18 02:54 pm E 5.1 8.0------ 63.5 61.0----
2024-04-18 02:48 pmESE 5.1 7.0------ 63.3 61.0----
2024-04-18 02:42 pm S 2.9 6.0------ 63.3 61.0----
2024-04-18 02:36 pm S 4.1 8.0------ 62.1 61.0----
2024-04-18 02:30 pmSSE 4.1 6.0------ 61.0 61.0----
2024-04-18 02:24 pmSSE 2.9 8.0------ 60.4 61.0----
2024-04-18 02:18 pmSSE 4.1 7.0------ 60.3 61.0----
2024-04-18 02:12 pmSSE 4.1 7.0------ 60.3 61.0----
2024-04-18 02:06 pmSSE 4.1 6.0------ 60.4 61.0----
2024-04-18 02:00 pmSSE 4.1 7.0------ 60.8 61.0----
2024-04-18 01:54 pmSSE 5.1 7.0------ 60.8 61.0----
2024-04-18 01:48 pm SE 6.0 7.0------ 61.0 61.0----
2024-04-18 01:42 pm SE 5.1 6.0------ 62.1 61.0----
2024-04-18 01:36 pmSSE 4.1 6.0------ 62.4 61.0----
2024-04-18 01:30 pmSSE 4.1 7.0------ 62.2 61.0----
2024-04-18 01:24 pmSSE 2.9 6.0------ 62.4 60.8----
2024-04-18 01:18 pmSSE 4.1 8.0------ 62.4 60.8----
2024-04-18 01:12 pmSSE 5.1 7.0------ 62.1 60.8----
2024-04-18 01:06 pmSSE 4.1 7.0------ 61.9 60.8----
2024-04-18 01:00 pmSSE 2.9 7.0------ 61.2 60.8----
2024-04-18 12:54 pm SE 4.1 8.0------ 60.6 60.8----
2024-04-18 12:48 pmSSE 4.1 6.0------ 61.0 60.8----
2024-04-18 12:42 pmSSE 4.1 7.0------ 60.6 60.8----
2024-04-18 12:36 pmESE 5.1 7.0------ 59.5 60.8----
2024-04-18 12:30 pm SE 4.1 6.0------ 60.1 60.8----
2024-04-18 12:24 pm SE 5.1 6.0------ 59.0 60.6----
2024-04-18 12:18 pmESE 6.0 7.0------ 58.8 60.6----
2024-04-18 12:12 pm SE 4.1 6.0------ 59.0 60.6----
2024-04-18 12:06 pmESE 4.1 5.1------ 59.0 60.6----
2024-04-18 12:00 pmSSE 2.9 5.1------ 59.4 60.6----
2024-04-18 11:54 am SE 4.1 6.0------ 59.0 60.6----
2024-04-18 11:48 amSSE 2.9 5.1------ 59.4 60.6----
2024-04-18 11:42 amSSE 2.9 5.1------ 59.2 60.6----
2024-04-18 11:36 amSSE 2.9 5.1------ 59.2 60.6----
2024-04-18 11:30 amSSE 2.9 4.1------ 59.0 60.6----
2024-04-18 11:24 am SE 2.9 4.1------ 58.5 60.6----
2024-04-18 11:18 amESE 2.9 5.1------ 58.3 60.6----
2024-04-18 11:12 amESE 2.9 4.1------ 58.5 60.6----
2024-04-18 11:06 am- 0.0 1.9------ 58.8 60.6----
2024-04-18 11:00 am SE 1.9 4.1------ 58.3 60.6----
2024-04-18 10:54 am E 1.0 2.9------ 58.1 60.6----
2024-04-18 10:48 amESE 1.9 2.9------------
2024-04-18 10:42 amESE 1.0 1.9------------
2024-04-18 10:36 amNNE 1.9 5.1------------
2024-04-18 10:30 amNNE 2.9 5.1------ 57.2 60.6----
2024-04-18 10:24 am NE 2.9 5.1------ 57.0 60.6----
2024-04-18 10:18 amENE 2.9 6.0------ 56.7 60.6----
2024-04-18 10:12 am NE 5.1 7.0------ 56.5 60.6----
2024-04-18 10:06 am E 4.1 6.0------ 56.5 60.6----
2024-04-18 10:00 am E 4.1 5.1------ 56.3 60.6----
2024-04-18 09:54 amENE 4.1 5.1------ 56.3 60.6----
2024-04-18 09:48 am E 1.9 4.1------ 56.1 60.6----
2024-04-18 09:42 am E 4.1 7.0------ 55.9 60.6----
2024-04-18 09:36 am E 5.1 7.0------ 55.9 60.6----
2024-04-18 09:30 amENE 5.1 7.0------ 55.9 60.6----
2024-04-18 09:24 am NE 6.0 7.0------ 56.1 60.6----
2024-04-18 09:18 amENE 5.1 7.0------ 56.1 60.6----
2024-04-18 09:12 am E 4.1 6.0------ 56.7 60.6----
2024-04-18 09:06 am E 5.1 6.0------ 56.5 60.6----
2024-04-18 09:00 am E 4.1 5.1------ 56.7 60.6----
2024-04-18 08:54 am E 4.1 5.1------ 56.7 60.6----
2024-04-18 08:48 am E 5.1 6.0------ 56.7 60.6----
2024-04-18 08:42 am E 5.1 6.0------ 57.0 60.6----
2024-04-18 08:36 am E 5.1 6.0------ 57.0 60.6----
2024-04-18 08:30 am E 4.1 6.0------ 57.2 60.6----
2024-04-18 08:24 am E 5.1 5.1------ 57.4 60.6----
2024-04-18 08:18 am E 4.1 6.0------ 57.6 60.8----
2024-04-18 08:12 am E 6.0 7.0------ 57.7 60.8----
2024-04-18 08:06 am E 6.0 7.0------ 57.9 60.8----
2024-04-18 08:00 am E 4.1 5.1------ 58.1 60.8----
2024-04-18 07:54 am E 5.1 5.1------ 58.3 60.8----